[[{"header":{"parameterUnit":"m.s-1","parameterCategory":2,"la1":30.2991,"la2":30.254,"lo1":-89.0895,"lo2":-89.0444,"dy":0.0017,"dx":0.0017,"nx":28,"ny":28,"refTime":"2024-10-03T21:00:00:Z","depth":"0","parameterNumber":2,"parameterNumberName":"U-component_of_CURRENTS"},"data":[0,0,0,0,0,0,0,0,0,0,0,0,0,0,0,0,0,0,0,0,0,0,0,0,0,0,0,0,0,0,0,0,0,0,0,0,0,0,0,0,0,0,0,0,0,0,0,0,0,0,0,0,0,0,0,0,0,0,0.2315,0.2316,0,0.2415,0.2416,0.2417,0.2439,0.2439,0.2438,0.2438,0.2483,0.2484,0.2486,0,0,0,0,0,0,0,0,0,0,0,0,0,0.2206,0.2207,0.2315,0.2316,0.2318,0.2415,0.2416,0.2417,0.2439,0.2439,0.2438,0.2438,0.2482,0.2484,0.2486,0,0,0,0,0,0,0,0,0,0,0,0,0,0.2272,0.2207,0.2314,0.2342,0.2346,0.2415,0.2416,0.2417,0.2439,0.2439,0.2438,0.2437,0.2482,0.2484,0.2486,0.2516,0,0,0.2494,0.2495,0,0,0,0,0,0,0,0,0.2268,0.2275,0.2337,0.2341,0.2345,0.2416,0.2394,0.2448,0.244,0.2401,0.2438,0.2437,0.2458,0.2462,0.2479,0.2518,0.252,0.2494,0.2496,0.2497,0.2497,0,0,0,0,0,0,0,0.2263,0.2271,0.2352,0.2339,0.2344,0.2372,0.238,0.2405,0.2429,0.2404,0.2407,0.2423,0.2459,0.2477,0.2481,0.252,0.2494,0.2496,0.2498,0.2499,0.2649,0.2651,0,0,0,0,0,0,0.2254,0.2267,0.2349,0.2355,0.2307,0.2374,0.2383,0.2392,0.243,0.2436,0.2423,0.2423,0.2473,0.2478,0.2482,0.2598,0.2497,0.2499,0.25,0.2646,0.2649,0.2652,0,0,0,0,0,0,0.2251,0.226,0.2345,0.2316,0.2329,0.2377,0.2387,0.2394,0.2419,0.2445,0.245,0.2441,0.2473,0.2479,0.2524,0.2597,0.25,0.2502,0.2643,0.2647,0.2651,0.2779,0,0,0,0,0,0,0.2247,0.2258,0.2263,0.2315,0.233,0.24,0.2388,0.2397,0.243,0.2432,0.2462,0.2465,0.2473,0.2521,0.2527,0.2598,0.2504,0.264,0.2645,0.265,0.2772,0.2787,0.28,0,0,0,0,0,0.2243,0.2266,0.2263,0.2273,0.2335,0.2402,0.2413,0.2443,0.2432,0.2458,0.2477,0.2465,0.2555,0.2525,0.2531,0.2605,0.2638,0.2644,0.2649,0.2766,0.2784,0.28,0,0,0,0,0,0,0.224,0.2273,0.2269,0.2305,0.2351,0.2407,0.2442,0.2449,0.2485,0.2486,0.2491,0.2498,0.2568,0.2561,0.2527,0.2661,0.2597,0.2604,0.2684,0.2701,0.2715,0.2705,0.2506,0,0,0,0,0,0.2235,0.2257,0.2296,0.2332,0.2352,0.2392,0.2421,0.2442,0.2481,0.2497,0.2517,0.2547,0.2598,0.2625,0.2656,0.2724,0.2722,0.2777,0.2791,0.2803,0.2799,0.2861,0.2881,0.2671,0.2671,0.2671,0,0,0.2258,0.2271,0.2292,0.2332,0.237,0.2445,0.2409,0.2468,0.2534,0.2496,0.2583,0.2592,0.2623,0.2709,0.2741,0.2713,0.2867,0.281,0.282,0.281,0.2869,0.289,0.2908,0.2675,0.2674,0.2673,0,0,0.2345,0.2314,0.238,0.241,0.2462,0.2484,0.25,0.2555,0.2577,0.2649,0.2652,0.2695,0.2762,0.2809,0.284,0.2945,0.2933,0.2962,0.3037,0.3099,0.3117,0.3132,0.3177,0.3196,0.2977,0.2977,0.2977,0,0.2396,0.2432,0.2415,0.2489,0.2513,0.2508,0.2587,0.2632,0.2696,0.2713,0.2692,0.2796,0.2817,0.2933,0.2977,0.2981,0.3001,0.2975,0.3119,0.3133,0.3147,0.3189,0.3208,0.2984,0.2983,0.2982,0.2982,0,0.2534,0.2555,0.2595,0.267,0.2702,0.2755,0.2797,0.2833,0.2834,0.2867,0.2942,0.2966,0.3018,0.3053,0.3053,0.3174,0.3154,0.3125,0.3076,0.3176,0.3214,0.3231,0.2994,0.2991,0.2989,0.2987,0,0,0.2663,0.2693,0.2701,0.2707,0.2773,0.28,0.2908,0.2971,0.3005,0.3066,0.3117,0.3218,0.3189,0.322,0.3227,0.3285,0.3411,0.3254,0.3254,0.3298,0.3547,0.3526,0.3542,0.3413,0.3417,0.3419,0.3542,0,0.2778,0.287,0.2876,0.2957,0.2981,0.2983,0.3063,0.3116,0.3137,0.3185,0.3221,0.3271,0.3272,0.3279,0.3354,0.3376,0.3458,0.3379,0.3441,0.3443,0.3413,0.3562,0.344,0.3539,0.3559,0.3561,0.3563,0,0.2885,0.2912,0.299,0.2989,0.3007,0.3069,0.3095,0.3173,0.3252,0.3266,0.3333,0.3341,0.3448,0.3405,0.3551,0.3501,0.3546,0.3565,0.357,0.351,0.3454,0.3438,0.3568,0.3413,0.3589,0.3587,0.3585,0,0.2863,0.2959,0.298,0.2995,0.3049,0.3075,0.3114,0.3186,0.3218,0.3308,0.3324,0.3442,0.3478,0.3567,0.3633,0.3598,0.3767,0.3718,0.3753,0.375,0.3635,0.3618,0.3617,0.3839,0.3839,0.3838,0.3838,0,0.2892,0.2903,0.2958,0.2959,0.2987,0.304,0.3075,0.3134,0.321,0.3253,0.3349,0.3398,0.3519,0.362,0.3676,0.3784,0.3821,0.3798,0.3799,0.3678,0.3664,0.351,0.3447,0.3843,0.3842,0.3841,0.384,0,0.2817,0.2861,0.2878,0.2941,0.2957,0.2967,0.303,0.3057,0.3147,0.3207,0.3238,0.3389,0.3526,0.3646,0.3788,0.3832,0.3814,0.3953,0.3801,0.3783,0.3637,0.3587,0.3505,0.3405,0.4004,0.4005,0.4005,0,0.2771,0.2777,0.2833,0.2837,0.2857,0.2887,0.2908,0.3006,0.3041,0.3194,0.3219,0.3382,0.3489,0.3713,0.3826,0.3962,0.3821,0.3914,0.3828,0.3648,0.3593,0.3443,0.3353,0.3733,0.3731,0.373,0.3729,0,0.269,0.2714,0.2729,0.2742,0.2757,0.2775,0.2821,0.2841,0.2967,0.3032,0.3145,0.3247,0.3497,0.3597,0.38,0.3865,0.3698,0.3886,0.3742,0.3433,0.3227,0.3123,0.362,0.3715,0.3716,0.3717,0.3718,0.3719,0.2621,0.261,0.2634,0.2633,0.2649,0.2649,0.2623,0.2702,0.2748,0.2834,0.3015,0.3132,0.3358,0.3626,0.3659,0.3623,0.3621,0.3528,0.3502,0.338,0.3218,0.369,0.3754,0.3756,0.3757,0.3758,0.3759,0,0.2522,0.2519,0.2522,0.2507,0.2473,0.2524,0.2542,0.2507,0.2521,0.2695,0.2792,0.3001,0.3122,0.3263,0.3351,0.3249,0.3112,0.3149,0.2886,0.2834,0.3295,0.3214,0.311,0.311,0.311,0.311,0.3111,0.3111,0.2464,0.2424,0.2423,0.2331,0.2316,0.223,0.2211,0.2204,0.2285,0.2376,0.2491,0.2674,0.2901,0.3024,0.2931,0.2873,0.2611,0.2539,0.2507,0.2797,0.2827,0.2856,0.2761,0.2565,0.2565,0.1919,0.1914,0.191]},{"header":{"parameterUnit":"m.s-1","parameterCategory":2,"la1":30.2991,"la2":30.254,"lo1":-89.0895,"lo2":-89.0444,"dy":0.0017,"dx":0.0017,"nx":28,"ny":28,"refTime":"2024-10-03T21:00:00:Z","depth":"0","parameterNumber":3,"parameterNumberName":"V-component_of_CURRENTS"},"data":[0,0,0,0,0,0,0,0,0,0,0,0,0,0,0,0,0,0,0,0,0,0,0,0,0,0,0,0,0,0,0,0,0,0,0,0,0,0,0,0,0,0,0,0,0,0,0,0,0,0,0,0,0,0,0,0,0,0,-0.0091,-0.0092,0,-0.0207,-0.0208,-0.021,-0.0296,-0.0297,-0.0298,-0.0298,-0.0416,-0.0419,-0.0421,0,0,0,0,0,0,0,0,0,0,0,0,0,-0.0023,-0.0023,-0.009,-0.0092,-0.0093,-0.0207,-0.0209,-0.021,-0.0296,-0.0297,-0.0298,-0.0299,-0.0415,-0.0418,-0.0421,0,0,0,0,0,0,0,0,0,0,0,0,0,-0.0087,-0.0023,-0.009,-0.0149,-0.0156,-0.0207,-0.0209,-0.0211,-0.0296,-0.0297,-0.0298,-0.0299,-0.0414,-0.0418,-0.0422,-0.0424,0,0,-0.0433,-0.0435,0,0,0,0,0,0,0,0,-0.0084,-0.009,-0.0139,-0.0145,-0.0152,-0.0237,-0.0228,-0.0282,-0.0296,-0.0244,-0.0298,-0.03,-0.0355,-0.0364,-0.0385,-0.043,-0.0435,-0.0434,-0.0436,-0.0437,-0.0438,0,0,0,0,0,0,0,-0.0079,-0.0086,-0.0138,-0.0141,-0.0149,-0.0197,-0.0207,-0.0239,-0.0293,-0.0248,-0.0255,-0.0266,-0.0359,-0.0381,-0.0388,-0.0437,-0.0433,-0.0437,-0.0439,-0.0441,-0.048,-0.0479,0,0,0,0,0,0,-0.0057,-0.0081,-0.0134,-0.0141,-0.0119,-0.0197,-0.0208,-0.021,-0.0293,-0.0306,-0.0265,-0.0269,-0.0374,-0.0384,-0.0393,-0.0371,-0.0437,-0.0441,-0.0443,-0.0481,-0.048,-0.0479,0,0,0,0,0,0,-0.0055,-0.006,-0.0129,-0.0114,-0.0126,-0.0197,-0.0198,-0.0212,-0.0232,-0.0305,-0.0319,-0.0271,-0.0375,-0.0387,-0.041,-0.0377,-0.0443,-0.0446,-0.0483,-0.0481,-0.0479,-0.0346,0,0,0,0,0,0,-0.0053,-0.0059,-0.0051,-0.0112,-0.0126,-0.0141,-0.0198,-0.0213,-0.0237,-0.0244,-0.0315,-0.0327,-0.0377,-0.0403,-0.0413,-0.0383,-0.0449,-0.0484,-0.0482,-0.048,-0.0352,-0.034,-0.033,0,0,0,0,0,-0.005,-0.0033,-0.0049,-0.0056,-0.0112,-0.0139,-0.015,-0.0206,-0.0236,-0.0231,-0.0281,-0.0325,-0.0396,-0.0405,-0.0417,-0.0388,-0.0485,-0.0483,-0.048,-0.0357,-0.0342,-0.033,0,0,0,0,0,0,-0.0006,-0.0042,-0.0061,-0.0058,-0.0087,-0.0153,-0.0159,-0.0194,-0.0232,-0.024,-0.0311,-0.0326,-0.0337,-0.0378,-0.0387,-0.0393,-0.0447,-0.0447,-0.035,-0.0336,-0.0325,-0.0292,-0.0452,0,0,0,0,0,0.0012,0.0017,-0.0026,-0.0024,-0.0033,-0.0092,-0.011,-0.0144,-0.0187,-0.0206,-0.0255,-0.0303,-0.0335,-0.0348,-0.039,-0.0386,-0.0414,-0.0375,-0.0364,-0.0354,-0.0335,-0.0348,-0.0335,-0.047,-0.047,-0.047,0,0,0.0027,0.0008,0.0009,-0.0014,-0.0045,-0.0036,-0.0105,-0.0122,-0.0113,-0.021,-0.0213,-0.027,-0.0329,-0.0332,-0.0339,-0.036,-0.033,-0.0351,-0.0342,-0.0328,-0.0344,-0.033,-0.0319,-0.0468,-0.0468,-0.0468,0,0,0.0067,0.0048,0.0071,0.0061,0.0033,0.0003,0.0008,-0.0043,-0.0063,-0.0075,-0.014,-0.0167,-0.0224,-0.0249,-0.0272,-0.022,-0.0277,-0.0239,-0.0145,-0.0157,-0.0146,-0.0136,-0.0146,-0.0138,-0.0224,-0.0224,-0.0224,0,0.0086,0.0111,0.0072,0.0097,0.0097,0.0034,0.0063,0.0043,-0.0009,-0.0011,-0.0057,-0.0125,-0.0179,-0.0167,-0.0155,-0.0191,-0.0212,-0.0189,-0.014,-0.0131,-0.0124,-0.0136,-0.0129,-0.0217,-0.0218,-0.0219,-0.0219,0,0.0151,0.017,0.0183,0.0199,0.0198,0.0208,0.0183,0.0178,0.014,0.0115,0.0103,0.0027,-0.0011,-0.003,-0.0079,-0.0045,-0.0082,-0.013,-0.0168,-0.0102,-0.012,-0.0115,-0.0207,-0.021,-0.0212,-0.0213,0,0,0.0187,0.0223,0.0227,0.0251,0.0253,0.0254,0.0285,0.0291,0.0312,0.0263,0.0285,0.0227,0.0176,0.0149,0.0085,0.0079,0.0109,0.0009,0.0005,0.0012,0.0088,0.0069,0.0072,0.0068,0.0069,0.007,0.0058,0,0.0246,0.0313,0.0319,0.038,0.0408,0.0384,0.0418,0.0418,0.0398,0.0405,0.0347,0.0332,0.025,0.0226,0.0214,0.0128,0.0126,0.0118,0.0012,0.001,-0.0005,0.0078,0.0098,0.009,0.0062,0.0062,0.0063,0,0.0307,0.0343,0.0416,0.0465,0.0477,0.0509,0.0542,0.0567,0.0573,0.0557,0.0543,0.0482,0.0468,0.0375,0.0304,0.0301,0.0214,0.0148,0.0145,0.0087,0.0,0.0015,0.0098,-0.0089,0.0069,0.0069,0.0068,0,0.0336,0.0408,0.0466,0.0484,0.0535,0.0565,0.059,0.0611,0.0646,0.0656,0.0674,0.063,0.0609,0.0512,0.0373,0.0338,0.029,0.0216,0.0125,0.0122,0.0099,0.0092,0.0002,0.0176,0.0176,0.0176,0.0176,0,0.0385,0.043,0.0485,0.0515,0.059,0.0609,0.0687,0.0701,0.0746,0.0817,0.0754,0.0792,0.0641,0.0584,0.0439,0.0317,0.0341,0.0171,0.013,0.0146,0.0143,-0.0056,-0.0149,0.0176,0.0176,0.0176,0.0176,0,0.0401,0.0437,0.0509,0.0578,0.0605,0.0656,0.0749,0.0808,0.0841,0.0931,0.094,0.0924,0.0865,0.071,0.056,0.0415,0.0196,0.0224,0.0257,0.0221,-0.0049,-0.0134,-0.0226,-0.0293,0.0131,0.0131,0.013,0,0.0416,0.0454,0.0548,0.0601,0.0637,0.0718,0.0785,0.0843,0.0921,0.1021,0.1077,0.1053,0.1071,0.0859,0.0605,0.0384,0.0207,0.0222,0.0156,-0.003,-0.0156,-0.0212,-0.0266,0.0177,0.0177,0.0177,0.0177,0,0.0446,0.0478,0.054,0.0648,0.0728,0.0825,0.0929,0.1005,0.11,0.119,0.1311,0.1338,0.1162,0.0982,0.0668,0.0477,0.0116,0.0216,0.0018,-0.0113,-0.0172,-0.0267,0.0142,0.0178,0.0178,0.0178,0.0178,0.0178,0.047,0.0518,0.0606,0.071,0.0805,0.0934,0.1034,0.1159,0.1304,0.1474,0.1492,0.1592,0.13,0.0897,0.061,0.0091,0.0113,-0.0064,-0.0146,-0.0181,-0.0257,0.016,0.0146,0.0146,0.0146,0.0146,0.0145,0,0.0507,0.0571,0.0668,0.0801,0.0917,0.0961,0.1138,0.1257,0.145,0.1611,0.1735,0.1681,0.128,0.0827,0.016,-0.0196,-0.0336,-0.0401,-0.049,-0.0525,-0.0159,-0.0172,-0.0249,-0.0249,-0.0249,-0.0248,-0.0248,-0.0248,0.0536,0.063,0.0685,0.0877,0.0976,0.115,0.1262,0.1435,0.1591,0.1801,0.1898,0.196,0.1605,0.0428,-0.0397,-0.0586,-0.0839,-0.0852,-0.099,-0.0778,-0.0754,-0.0731,-0.0768,-0.0968,-0.0969,-0.1308,-0.1312,-0.1314]}],[{"header":{"parameterUnit":"m.s-1","parameterCategory":2,"la1":30.2991,"la2":30.254,"lo1":-89.0895,"lo2":-89.0444,"dy":0.0017,"dx":0.0017,"nx":28,"ny":28,"refTime":"2024-10-03T21:00:00:Z","depth":"2","parameterNumber":2,"parameterNumberName":"U-component_of_CURRENTS"},"data":[0,0,0,0,0,0,0,0,0,0,0,0,0,0,0,0,0,0,0,0,0,0,0,0,0,0,0,0,0,0,0,0,0,0,0,0,0,0,0,0,0,0,0,0,0,0,0,0,0,0,0,0,0,0,0,0,0,0,0.2087,0.2088,0,0.2137,0.2137,0.2138,0.2165,0.2165,0.2165,0.2165,0.2216,0.2218,0.2219,0,0,0,0,0,0,0,0,0,0,0,0,0,0.2037,0.2037,0.2087,0.2088,0.2089,0.2137,0.2137,0.2138,0.2165,0.2165,0.2165,0.2165,0.2216,0.2217,0.2219,0,0,0,0,0,0,0,0,0,0,0,0,0,0.2069,0.2038,0.2087,0.2108,0.211,0.2137,0.2137,0.2138,0.2165,0.2165,0.2165,0.2165,0.2215,0.2217,0.2219,0.2229,0,0,0.2225,0.2226,0,0,0,0,0,0,0,0,0.2068,0.2071,0.2104,0.2107,0.2109,0.2145,0.2138,0.2169,0.2165,0.2144,0.2165,0.2165,0.2193,0.2196,0.2205,0.2231,0.2233,0.2225,0.2226,0.2227,0.2228,0,0,0,0,0,0,0,0.2065,0.2069,0.2107,0.2105,0.2108,0.2122,0.2126,0.2144,0.2167,0.2146,0.2148,0.2154,0.2194,0.2203,0.2207,0.2234,0.2225,0.2227,0.2228,0.2229,0.2319,0.232,0,0,0,0,0,0,0.2058,0.2067,0.2105,0.2108,0.2088,0.2122,0.2128,0.2133,0.2167,0.2172,0.2153,0.2155,0.22,0.2204,0.2209,0.2282,0.2227,0.2229,0.223,0.2317,0.2319,0.232,0,0,0,0,0,0,0.2057,0.2061,0.2103,0.2089,0.2095,0.2123,0.2129,0.2134,0.2153,0.2173,0.2178,0.2168,0.22,0.2206,0.224,0.2282,0.223,0.2232,0.2316,0.2318,0.232,0.239,0,0,0,0,0,0,0.2055,0.206,0.2068,0.2088,0.2096,0.2129,0.2129,0.2135,0.2156,0.2158,0.2187,0.2191,0.2201,0.2237,0.2242,0.2283,0.2233,0.2314,0.2317,0.2319,0.2386,0.2394,0.24,0,0,0,0,0,0.2053,0.2068,0.2068,0.2073,0.2103,0.213,0.2136,0.2155,0.2156,0.2171,0.2192,0.2191,0.2255,0.2239,0.2245,0.2288,0.2313,0.2316,0.2319,0.2383,0.2392,0.24,0,0,0,0,0,0,0.2056,0.2073,0.2073,0.2093,0.2112,0.2135,0.2152,0.216,0.2187,0.2192,0.2205,0.2211,0.226,0.2257,0.2239,0.2319,0.2285,0.2289,0.2331,0.2341,0.2348,0.2361,0.2235,0,0,0,0,0,0.2056,0.2073,0.2087,0.2107,0.2112,0.2131,0.2145,0.2158,0.2181,0.2194,0.2216,0.2241,0.2274,0.2292,0.2316,0.2355,0.2365,0.2385,0.2393,0.2399,0.2413,0.2464,0.2477,0.2329,0.2329,0.2329,0,0,0.2064,0.2076,0.2086,0.2108,0.2122,0.215,0.2141,0.2167,0.2202,0.2195,0.2251,0.2267,0.2289,0.2341,0.2362,0.2346,0.2445,0.2403,0.2408,0.2418,0.2468,0.2483,0.2496,0.2331,0.2331,0.233,0,0,0.2093,0.2095,0.2117,0.214,0.2164,0.217,0.2178,0.2206,0.2228,0.2274,0.2286,0.2325,0.2366,0.24,0.2419,0.2477,0.2482,0.2484,0.2537,0.2587,0.26,0.2611,0.264,0.2653,0.2489,0.2489,0.2489,0,0.2105,0.2127,0.213,0.2166,0.2182,0.2181,0.2209,0.224,0.2281,0.2305,0.23,0.2384,0.2401,0.2475,0.2502,0.2498,0.2518,0.2504,0.2598,0.261,0.262,0.2647,0.2661,0.2492,0.2492,0.2492,0.2491,0,0.2155,0.2174,0.2191,0.2227,0.2248,0.227,0.23,0.2333,0.2347,0.2375,0.2445,0.2474,0.2527,0.254,0.2544,0.2633,0.262,0.2602,0.2578,0.264,0.2663,0.2677,0.2498,0.2496,0.2495,0.2494,0,0,0.2167,0.2213,0.2221,0.2234,0.2275,0.2292,0.2353,0.2393,0.2444,0.2484,0.2556,0.2612,0.2627,0.265,0.2665,0.2708,0.2801,0.2696,0.2697,0.2729,0.2908,0.2812,0.2817,0.2806,0.2808,0.2811,0.2893,0,0.2196,0.2249,0.2272,0.2318,0.2329,0.236,0.2417,0.2466,0.2509,0.2585,0.2622,0.2693,0.2671,0.2712,0.2756,0.2788,0.2841,0.278,0.2839,0.2841,0.2753,0.2831,0.2623,0.2671,0.2906,0.2908,0.2909,0,0.2223,0.2249,0.2294,0.2336,0.2348,0.2394,0.2463,0.2517,0.262,0.2668,0.2742,0.2777,0.2859,0.2833,0.2922,0.2887,0.2916,0.293,0.2933,0.283,0.2771,0.2648,0.2687,0.2932,0.293,0.2928,0.2927,0,0.219,0.2254,0.2278,0.2301,0.2366,0.2409,0.2447,0.2542,0.2607,0.2732,0.2802,0.288,0.2957,0.2985,0.3006,0.2985,0.3092,0.306,0.3002,0.2995,0.2821,0.2793,0.3148,0.3148,0.3147,0.3147,0.3147,0,0.2187,0.2203,0.2273,0.2293,0.234,0.2397,0.2483,0.2544,0.2674,0.2748,0.2845,0.2923,0.3008,0.3066,0.3054,0.306,0.3131,0.3033,0.3021,0.2837,0.2811,0.3032,0.3018,0.315,0.3149,0.3149,0.3148,0,0.2141,0.2182,0.2222,0.2304,0.2324,0.2369,0.2493,0.2563,0.2689,0.28,0.2848,0.3005,0.3071,0.3116,0.3186,0.3135,0.313,0.3121,0.2887,0.2846,0.299,0.2979,0.3072,0.3069,0.3067,0.3066,0.3064,0,0.2117,0.2143,0.2222,0.2254,0.2296,0.2375,0.2424,0.2552,0.2618,0.2811,0.2843,0.3003,0.3033,0.3101,0.3078,0.3054,0.312,0.2851,0.277,0.301,0.2989,0.298,0.2972,0.2571,0.2566,0.2562,0.2558,0,0.209,0.2134,0.2155,0.2226,0.2283,0.2344,0.2415,0.2467,0.2602,0.2688,0.277,0.2818,0.293,0.2832,0.2856,0.2801,0.2825,0.276,0.31,0.2611,0.2541,0.2519,0.2527,0.2519,0.2523,0.2526,0.2528,0.253,0.2062,0.2075,0.2123,0.2171,0.225,0.2286,0.229,0.2352,0.2408,0.2459,0.2576,0.2563,0.2631,0.2546,0.2468,0.245,0.2635,0.2517,0.253,0.2548,0.2463,0.2392,0.2327,0.2329,0.2331,0.2334,0.2335,0,0.202,0.203,0.2068,0.2112,0.216,0.2245,0.2257,0.2213,0.2191,0.2248,0.2263,0.2095,0.2052,0.2126,0.2047,0.2046,0.2014,0.1961,0.1916,0.1957,0.1994,0.1879,0.1589,0.1586,0.1583,0.1581,0,0,0.1992,0.1966,0.1958,0.1987,0.2062,0.2046,0.2035,0.1962,0.1937,0.1848,0.1821,0.193,0.2046,0.1776,0.1767,0.167,0.1787,0.16,0.2208,0.2196,0.2229,0.2335,0.2208,0,0,0,0,0]},{"header":{"parameterUnit":"m.s-1","parameterCategory":2,"la1":30.2991,"la2":30.254,"lo1":-89.0895,"lo2":-89.0444,"dy":0.0017,"dx":0.0017,"nx":28,"ny":28,"refTime":"2024-10-03T21:00:00:Z","depth":"2","parameterNumber":3,"parameterNumberName":"V-component_of_CURRENTS"},"data":[0,0,0,0,0,0,0,0,0,0,0,0,0,0,0,0,0,0,0,0,0,0,0,0,0,0,0,0,0,0,0,0,0,0,0,0,0,0,0,0,0,0,0,0,0,0,0,0,0,0,0,0,0,0,0,0,0,0,0.008,0.0079,0,0.0018,0.0018,0.0017,-0.0039,-0.004,-0.004,-0.0041,-0.0132,-0.0134,-0.0136,0,0,0,0,0,0,0,0,0,0,0,0,0,0.0096,0.0096,0.008,0.0079,0.0079,0.0019,0.0018,0.0016,-0.0039,-0.004,-0.004,-0.0041,-0.0131,-0.0134,-0.0136,0,0,0,0,0,0,0,0,0,0,0,0,0,0.0065,0.0096,0.008,0.0046,0.0042,0.0019,0.0017,0.0016,-0.0039,-0.004,-0.004,-0.0041,-0.013,-0.0133,-0.0136,-0.0143,0,0,-0.0146,-0.0147,0,0,0,0,0,0,0,0,0.0067,0.0064,0.0051,0.0048,0.0044,-0.0001,-0.001,-0.0038,-0.0039,-0.0011,-0.0041,-0.0041,-0.0089,-0.0095,-0.0109,-0.0147,-0.0151,-0.0146,-0.0148,-0.0149,-0.015,0,0,0,0,0,0,0,0.0069,0.0066,0.0053,0.0051,0.0047,0.0016,0.0011,-0.0016,-0.0048,-0.0014,-0.0017,-0.0019,-0.0091,-0.0106,-0.0111,-0.0152,-0.0146,-0.0149,-0.0151,-0.0152,-0.0204,-0.0204,0,0,0,0,0,0,0.0086,0.0068,0.0055,0.0051,0.0057,0.0016,0.0011,0.0012,-0.0048,-0.0056,-0.0019,-0.0022,-0.01,-0.0108,-0.0115,-0.0122,-0.0149,-0.0152,-0.0154,-0.0205,-0.0204,-0.0204,0,0,0,0,0,0,0.0086,0.0085,0.0057,0.006,0.0055,0.0018,0.0019,0.0011,-0.0002,-0.005,-0.006,-0.0023,-0.0101,-0.0111,-0.0134,-0.0126,-0.0153,-0.0156,-0.0205,-0.0204,-0.0204,-0.0138,0,0,0,0,0,0,0.0087,0.0086,0.0091,0.0062,0.0055,0.0052,0.0019,0.001,-0.0001,-0.0006,-0.0058,-0.0067,-0.0102,-0.0129,-0.0137,-0.0131,-0.0159,-0.0206,-0.0205,-0.0204,-0.0141,-0.0135,-0.0131,0,0,0,0,0,0.0088,0.0101,0.0092,0.009,0.0064,0.0054,0.0047,0.0016,-0.0,0.0,-0.0036,-0.0065,-0.0129,-0.0131,-0.014,-0.0135,-0.0206,-0.0205,-0.0204,-0.0143,-0.0136,-0.0131,0,0,0,0,0,0,0.0107,0.0096,0.0085,0.0093,0.0079,0.0045,0.0043,0.0024,-0.0005,-0.001,-0.006,-0.0071,-0.0089,-0.0119,-0.0119,-0.0147,-0.0172,-0.0173,-0.0123,-0.0117,-0.0112,-0.0098,-0.0161,0,0,0,0,0,0.0117,0.0124,0.0106,0.0112,0.0108,0.0078,0.0069,0.0051,0.0024,0.001,-0.0025,-0.0062,-0.0092,-0.0109,-0.0139,-0.0153,-0.0185,-0.0155,-0.015,-0.0146,-0.014,-0.0186,-0.0184,-0.02,-0.02,-0.02,0,0,0.0126,0.0121,0.0124,0.0117,0.0101,0.0105,0.007,0.0065,0.0064,0.0006,-0.0008,-0.0045,-0.0092,-0.0109,-0.012,-0.0132,-0.0155,-0.0144,-0.014,-0.0137,-0.0185,-0.0183,-0.0182,-0.02,-0.02,-0.02,0,0,0.0152,0.0145,0.016,0.0156,0.0145,0.0128,0.0132,0.0106,0.009,0.0077,0.0032,0.0003,-0.0039,-0.0074,-0.0096,-0.008,-0.0126,-0.0089,-0.0053,-0.0096,-0.0096,-0.0095,-0.0123,-0.0125,-0.0087,-0.0086,-0.0086,0,0.0162,0.0179,0.0162,0.0176,0.0177,0.0144,0.016,0.0142,0.0111,0.0102,0.0084,0.0017,-0.0023,-0.0052,-0.0047,-0.0068,-0.0096,-0.0072,-0.009,-0.009,-0.0091,-0.0119,-0.0123,-0.0083,-0.0084,-0.0084,-0.0084,0,0.0198,0.0212,0.0222,0.0229,0.0228,0.0237,0.0217,0.021,0.0189,0.0166,0.0137,0.0081,0.0041,0.0023,-0.0008,-0.0031,-0.0049,-0.0077,-0.0104,-0.0085,-0.0116,-0.0121,-0.0078,-0.008,-0.0081,-0.0081,0,0,0.0218,0.0243,0.0246,0.0266,0.0258,0.0266,0.0267,0.0258,0.0264,0.0222,0.0217,0.0157,0.0123,0.0095,0.0047,0.0008,-0.0019,-0.003,-0.0034,-0.0053,-0.0105,-0.0114,-0.0121,-0.0053,-0.0054,-0.0054,-0.012,0,0.0249,0.0296,0.0292,0.0333,0.0358,0.0335,0.0342,0.0329,0.0308,0.0296,0.0229,0.0208,0.0151,0.0136,0.0086,0.0008,-0.0031,0.0002,-0.0124,-0.0127,-0.0135,-0.0127,-0.0097,-0.0153,-0.0126,-0.0127,-0.0127,0,0.0285,0.0314,0.0362,0.04,0.0407,0.042,0.0432,0.0434,0.0402,0.0385,0.0341,0.0293,0.0231,0.0182,0.0053,0.0077,-0.0005,-0.0069,-0.0074,-0.011,-0.0146,-0.0171,-0.0165,-0.0137,-0.0136,-0.0135,-0.0134,0,0.0321,0.0365,0.0409,0.0421,0.045,0.0464,0.0472,0.0459,0.0479,0.0441,0.0449,0.0356,0.0326,0.0203,0.0072,0.0061,-0.0068,-0.0103,-0.0189,-0.019,-0.0203,-0.0204,-0.0194,-0.0194,-0.0194,-0.0194,-0.0193,0,0.0363,0.0402,0.0432,0.0459,0.0514,0.0511,0.0558,0.0551,0.0554,0.0583,0.0499,0.0501,0.0331,0.0239,0.0099,-0.0053,-0.0052,-0.0178,-0.021,-0.0178,-0.0176,-0.0195,-0.0194,-0.0196,-0.0196,-0.0195,-0.0195,0,0.0406,0.0422,0.0482,0.052,0.0536,0.0576,0.063,0.0664,0.0654,0.0689,0.0686,0.0614,0.0495,0.0323,0.0133,0.0,-0.0157,-0.0212,-0.0153,-0.0176,-0.0256,-0.0251,-0.0316,-0.0317,-0.0318,-0.0318,-0.0319,0,0.0437,0.047,0.053,0.0571,0.0592,0.0649,0.069,0.0708,0.075,0.0761,0.0784,0.0699,0.0637,0.0361,0.0123,-0.0117,-0.0151,-0.0247,-0.027,-0.0246,-0.027,-0.0264,-0.0258,-0.0258,-0.0258,-0.0258,-0.0258,0,0.0496,0.051,0.0555,0.0633,0.0688,0.0759,0.0819,0.0872,0.0894,0.0923,0.094,0.0894,0.0651,0.0423,0.0108,-0.0059,-0.0209,-0.0254,-0.0253,-0.0228,-0.0196,-0.0218,-0.0214,-0.0258,-0.0258,-0.0258,-0.0258,-0.0258,0.0535,0.0574,0.0625,0.0702,0.0771,0.0854,0.0914,0.0979,0.1052,0.1088,0.1046,0.0981,0.0731,0.0334,0.007,-0.02,-0.0203,-0.0307,-0.0305,-0.0304,-0.0281,-0.0252,-0.032,-0.032,-0.032,-0.0321,-0.0321,0,0.0582,0.0622,0.0694,0.078,0.0858,0.0886,0.0991,0.1042,0.1127,0.1156,0.1152,0.0913,0.0664,0.0387,-0.0004,-0.0253,-0.0274,-0.0331,-0.0296,-0.0294,-0.0294,-0.0269,-0.0306,-0.0306,-0.0307,-0.0307,0,0,0.0606,0.0672,0.0703,0.0831,0.0897,0.0993,0.1053,0.1124,0.1171,0.1189,0.116,0.1077,0.0751,0.0474,0.0145,-0.007,-0.013,-0.0122,-0.011,-0.0029,-0.0025,-0.0258,-0.0216,0,0,0,0,0]}],[{"header":{"parameterUnit":"m.s-1","parameterCategory":2,"la1":30.2991,"la2":30.254,"lo1":-89.0895,"lo2":-89.0444,"dy":0.0017,"dx":0.0017,"nx":28,"ny":28,"refTime":"2024-10-03T21:00:00:Z","depth":"4","parameterNumber":2,"parameterNumberName":"U-component_of_CURRENTS"},"data":[0,0,0,0,0,0,0,0,0,0,0,0,0,0,0,0,0,0,0,0,0,0,0,0,0,0,0,0,0,0,0,0,0,0,0,0,0,0,0,0,0,0,0,0,0,0,0,0,0,0,0,0,0,0,0,0,0,0,0.134,0.134,0,0.1356,0.1356,0.1356,0.1374,0.1374,0.1374,0.1374,0.1419,0.142,0.1421,0,0,0,0,0,0,0,0,0,0,0,0,0,0.1311,0.1311,0.134,0.134,0.134,0.1356,0.1356,0.1356,0.1373,0.1374,0.1374,0.1375,0.1419,0.142,0.1421,0,0,0,0,0,0,0,0,0,0,0,0,0,0.1324,0.1311,0.134,0.1351,0.1353,0.1356,0.1356,0.1356,0.1373,0.1374,0.1374,0.1375,0.1418,0.142,0.1421,0.142,0,0,0.1425,0.1426,0,0,0,0,0,0,0,0,0.1323,0.1325,0.1349,0.135,0.1352,0.1364,0.1362,0.1379,0.1373,0.1365,0.1374,0.1375,0.1403,0.1406,0.1406,0.1422,0.1424,0.1425,0.1426,0.1427,0.1427,0,0,0,0,0,0,0,0.1322,0.1324,0.1345,0.135,0.1351,0.1351,0.1353,0.1365,0.1381,0.1366,0.1367,0.137,0.1404,0.1405,0.1408,0.1424,0.1425,0.1426,0.1427,0.1428,0.1507,0.1508,0,0,0,0,0,0,0.1322,0.1324,0.1345,0.1346,0.1339,0.1351,0.1354,0.1359,0.1381,0.1384,0.1369,0.137,0.1403,0.1406,0.1409,0.1468,0.1426,0.1428,0.1429,0.1505,0.1507,0.1508,0,0,0,0,0,0,0.1321,0.1324,0.1344,0.1335,0.1338,0.1351,0.1357,0.1359,0.1389,0.1383,0.1387,0.14,0.1403,0.1408,0.1445,0.1468,0.1428,0.143,0.1504,0.1506,0.1508,0.1549,0,0,0,0,0,0,0.132,0.1323,0.1342,0.1335,0.1339,0.1364,0.1356,0.1359,0.1388,0.1391,0.1411,0.1413,0.1404,0.1443,0.1447,0.1469,0.1431,0.1502,0.1505,0.1507,0.1546,0.1552,0.1557,0,0,0,0,0,0.1319,0.1333,0.1343,0.1347,0.1359,0.1365,0.1367,0.1377,0.139,0.1406,0.1423,0.1414,0.1461,0.1446,0.1449,0.1473,0.1501,0.1504,0.1507,0.1543,0.1551,0.1557,0,0,0,0,0,0,0.1325,0.1336,0.1347,0.1363,0.1375,0.1368,0.1386,0.1396,0.1422,0.1435,0.1432,0.1437,0.1477,0.1473,0.1457,0.1503,0.1479,0.1483,0.1506,0.1513,0.1518,0.1529,0.1432,0,0,0,0,0,0.1337,0.1356,0.1361,0.1378,0.1387,0.1396,0.1407,0.1415,0.1428,0.1441,0.1453,0.147,0.1486,0.15,0.151,0.1539,0.1541,0.1557,0.1563,0.1567,0.1579,0.16,0.1609,0.1518,0.1518,0.1518,0,0,0.1344,0.1353,0.1365,0.1383,0.1393,0.1404,0.1404,0.1428,0.1445,0.1442,0.1481,0.1494,0.15,0.1528,0.1546,0.1532,0.1594,0.1571,0.1575,0.1585,0.1604,0.1613,0.1621,0.152,0.1519,0.1519,0,0,0.1348,0.1378,0.1389,0.1405,0.1428,0.1432,0.1448,0.1462,0.1482,0.1516,0.1519,0.1551,0.1575,0.158,0.1586,0.1633,0.1625,0.1639,0.1676,0.1696,0.1703,0.171,0.1722,0.1729,0.164,0.1641,0.1641,0,0.1356,0.1373,0.1394,0.1407,0.1424,0.1449,0.1464,0.1483,0.151,0.1533,0.1538,0.1589,0.1597,0.163,0.1648,0.1646,0.1656,0.1647,0.1703,0.171,0.1716,0.1726,0.1733,0.1643,0.1643,0.1642,0.1642,0,0.1357,0.1385,0.1395,0.1422,0.1445,0.1466,0.1492,0.1526,0.1558,0.1576,0.1631,0.1644,0.1675,0.1682,0.1683,0.1732,0.1724,0.1707,0.1683,0.1727,0.1735,0.1742,0.1646,0.1645,0.1645,0.1644,0,0,0.1329,0.1384,0.1392,0.1415,0.146,0.1473,0.1519,0.1559,0.1595,0.1635,0.1676,0.1717,0.1739,0.1748,0.1753,0.1776,0.1828,0.177,0.177,0.1778,0.1875,0.1775,0.1773,0.1824,0.1826,0.1827,0.1863,0,0.1324,0.1353,0.1386,0.1426,0.1444,0.1495,0.1532,0.158,0.1625,0.1672,0.1709,0.1752,0.1757,0.1783,0.181,0.1829,0.185,0.182,0.1835,0.1836,0.1738,0.1779,0.1832,0.1868,0.1869,0.1871,0.1871,0,0.1307,0.1335,0.1371,0.1436,0.145,0.1485,0.1561,0.1597,0.1671,0.1711,0.1768,0.1794,0.1854,0.184,0.1903,0.1888,0.1893,0.1898,0.1898,0.1797,0.1749,0.1816,0.1884,0.1883,0.1882,0.1881,0.188,0,0.1264,0.1324,0.1357,0.1379,0.1452,0.1493,0.154,0.1617,0.1661,0.1745,0.179,0.1849,0.1897,0.1919,0.1954,0.1935,0.2007,0.197,0.188,0.1873,0.1933,0.1926,0.2003,0.2003,0.2003,0.2003,0.2003,0,0.1231,0.1261,0.1349,0.1366,0.1416,0.1482,0.1547,0.1602,0.1691,0.1738,0.1814,0.1856,0.1925,0.1971,0.1975,0.1961,0.2026,0.1898,0.1879,0.1949,0.1943,0.1938,0.193,0.2004,0.2004,0.2004,0.2003,0,0.1169,0.1225,0.127,0.1363,0.1396,0.1435,0.1547,0.1588,0.1691,0.1755,0.1788,0.1892,0.195,0.1998,0.2041,0.1984,0.1977,0.195,0.2039,0.2023,0.182,0.1814,0.1837,0.1834,0.1831,0.1829,0.1827,0,0.1133,0.1153,0.1256,0.1284,0.1332,0.1408,0.1454,0.1571,0.1616,0.1756,0.1771,0.1877,0.1926,0.1914,0.1972,0.1969,0.1944,0.1921,0.1853,0.1825,0.1805,0.1803,0.1801,0.1823,0.1822,0.1821,0.1821,0,0.1066,0.1118,0.1157,0.1219,0.1276,0.1328,0.1409,0.1437,0.1561,0.1671,0.1715,0.1744,0.1809,0.1842,0.1868,0.1857,0.1923,0.1892,0.1896,0.1832,0.1808,0.179,0.1791,0.1811,0.1813,0.1813,0.1814,0,0.1021,0.1034,0.1095,0.114,0.1201,0.1227,0.1284,0.1343,0.1408,0.1562,0.1574,0.1684,0.1789,0.1785,0.1805,0.1798,0.1755,0.1676,0.1691,0.1702,0.1642,0.159,0.1519,0,0,0,0,0,0.097,0.0976,0.1008,0.105,0.1106,0.1144,0.1238,0.1302,0.1427,0.1416,0.1493,0.1541,0.1581,0.1646,0.1609,0.1738,0.1759,0.1686,0.1675,0.176,0.1771,0.1713,0,0,0,0,0,0,0.0936,0.0962,0.0976,0.0964,0.0977,0.1028,0.1085,0.117,0.1178,0.131,0.1347,0.1442,0.1512,0.1585,0.1578,0.1595,0.1554,0.1761,0.1757,0.1754,0.1764,0.1772,0.1716,0,0,0,0,0]},{"header":{"parameterUnit":"m.s-1","parameterCategory":2,"la1":30.2991,"la2":30.254,"lo1":-89.0895,"lo2":-89.0444,"dy":0.0017,"dx":0.0017,"nx":28,"ny":28,"refTime":"2024-10-03T21:00:00:Z","depth":"4","parameterNumber":3,"parameterNumberName":"V-component_of_CURRENTS"},"data":[0,0,0,0,0,0,0,0,0,0,0,0,0,0,0,0,0,0,0,0,0,0,0,0,0,0,0,0,0,0,0,0,0,0,0,0,0,0,0,0,0,0,0,0,0,0,0,0,0,0,0,0,0,0,0,0,0,0,0.011,0.011,0,0.0082,0.0081,0.0081,0.0062,0.0062,0.0062,0.0062,0.0012,0.0011,0.0009,0,0,0,0,0,0,0,0,0,0,0,0,0,0.0111,0.0111,0.011,0.011,0.011,0.0082,0.0081,0.0081,0.0061,0.0062,0.0062,0.0062,0.0013,0.0011,0.0009,0,0,0,0,0,0,0,0,0,0,0,0,0,0.0097,0.0111,0.011,0.0098,0.0097,0.0082,0.0081,0.0081,0.0061,0.0062,0.0062,0.0062,0.0013,0.0011,0.0009,-0.0004,0,0,0.0003,0.0002,0,0,0,0,0,0,0,0,0.0098,0.0097,0.01,0.0099,0.0098,0.0077,0.0063,0.0052,0.0061,0.0073,0.0062,0.0062,0.0033,0.0029,0.0022,-0.0007,-0.0009,0.0003,0.0002,0.0001,0.0,0,0,0,0,0,0,0,0.0099,0.0098,0.0097,0.01,0.0098,0.0082,0.008,0.0061,0.0051,0.0072,0.0071,0.0071,0.0032,0.0024,0.002,-0.0009,0.0003,0.0001,-0.0,-0.0001,-0.0056,-0.0056,0,0,0,0,0,0,0.0108,0.0099,0.0098,0.0096,0.01,0.0082,0.008,0.0082,0.0052,0.0048,0.0071,0.007,0.0027,0.0023,0.0018,0.0008,0.0001,-0.0001,-0.0002,-0.0056,-0.0056,-0.0056,0,0,0,0,0,0,0.0109,0.0109,0.0099,0.0098,0.0096,0.0082,0.0084,0.0081,0.0077,0.0052,0.0047,0.007,0.0027,0.0021,0.0003,0.0005,-0.0002,-0.0004,-0.0056,-0.0056,-0.0056,-0.0018,0,0,0,0,0,0,0.0109,0.0109,0.0113,0.0099,0.0097,0.0095,0.0084,0.0081,0.0077,0.0076,0.0049,0.0044,0.0026,0.0006,0.0001,0.0003,-0.0006,-0.0055,-0.0056,-0.0056,-0.0019,-0.0017,-0.0015,0,0,0,0,0,0.0109,0.0115,0.0113,0.0113,0.0103,0.0096,0.0093,0.0081,0.0077,0.0076,0.0057,0.0045,-0.0001,0.0004,-0.0002,-0.0001,-0.0055,-0.0056,-0.0056,-0.002,-0.0017,-0.0015,0,0,0,0,0,0,0.0115,0.0114,0.0111,0.0116,0.0109,0.0093,0.0093,0.0085,0.0068,0.0068,0.0043,0.0036,0.0021,0.0002,0.0009,-0.0019,-0.003,-0.0032,-0.0001,0.0001,0.0003,0.0012,-0.0007,0,0,0,0,0,0.012,0.0126,0.0118,0.0122,0.0121,0.0108,0.0104,0.0097,0.0082,0.0076,0.0057,0.0034,0.0013,0.0002,-0.0019,-0.0033,-0.0058,-0.0038,-0.0036,-0.0034,-0.0032,-0.0074,-0.0076,-0.0058,-0.0058,-0.0058,0,0,0.0123,0.0124,0.0127,0.0125,0.0118,0.012,0.0105,0.0104,0.0104,0.0072,0.0065,0.0041,0.001,-0.0006,-0.0015,-0.002,-0.0052,-0.0035,-0.0033,-0.0032,-0.0075,-0.0076,-0.0078,-0.0059,-0.0059,-0.0059,0,0,0.0135,0.0135,0.0145,0.0143,0.014,0.0132,0.0134,0.0122,0.0115,0.0104,0.008,0.0057,0.0029,0.0006,-0.001,-0.0012,-0.004,-0.0019,-0.0002,-0.0043,-0.0044,-0.0046,-0.0075,-0.0079,-0.0018,-0.0018,-0.0018,0,0.0139,0.0153,0.0145,0.0154,0.0158,0.014,0.0151,0.0139,0.0122,0.0116,0.0107,0.0058,0.0034,0.0008,0.0007,-0.0007,-0.0032,-0.0005,-0.004,-0.0042,-0.0044,-0.0073,-0.0079,-0.0016,-0.0016,-0.0017,-0.0017,0,0.0159,0.0171,0.0177,0.0185,0.0184,0.0191,0.0179,0.0174,0.0164,0.0149,0.0125,0.0086,0.0058,0.0044,0.0026,-0.0003,-0.0015,-0.0031,-0.0041,-0.0044,-0.0074,-0.0081,-0.0014,-0.0014,-0.0015,-0.0015,0,0,0.0169,0.0188,0.0191,0.0208,0.0205,0.0211,0.0208,0.0203,0.0206,0.0174,0.0166,0.0122,0.0099,0.0079,0.0048,0.0011,-0.0026,-0.0013,-0.0016,-0.0035,-0.011,-0.0102,-0.0109,-0.0049,-0.005,-0.0051,-0.0122,0,0.0188,0.022,0.0219,0.0249,0.0267,0.0254,0.0256,0.0247,0.023,0.0216,0.0166,0.0147,0.0113,0.0101,0.0057,-0.0005,-0.0042,-0.0005,-0.0111,-0.0114,-0.0102,-0.0116,-0.0054,-0.0127,-0.0128,-0.0129,-0.013,0,0.0212,0.0232,0.0267,0.0296,0.0302,0.0312,0.032,0.0319,0.0287,0.0274,0.0236,0.0198,0.0142,0.0113,0.0002,0.0028,-0.0035,-0.0087,-0.0092,-0.0103,-0.0119,-0.0128,-0.0142,-0.0141,-0.0141,-0.014,-0.0139,0,0.0236,0.0269,0.0303,0.0312,0.0333,0.0346,0.0352,0.0337,0.0346,0.0309,0.0307,0.023,0.0196,0.0101,-0.0002,-0.0002,-0.0126,-0.0141,-0.0196,-0.0196,-0.0197,-0.0194,-0.0222,-0.0222,-0.0222,-0.0221,-0.0221,0,0.0264,0.0293,0.0321,0.034,0.0382,0.0381,0.0414,0.0406,0.0398,0.0407,0.034,0.0325,0.0191,0.0106,0.0006,-0.0112,-0.0123,-0.0195,-0.0217,-0.0178,-0.0173,-0.0201,-0.0198,-0.0224,-0.0223,-0.0223,-0.0222,0,0.0288,0.0305,0.035,0.0382,0.0398,0.0427,0.0466,0.0484,0.047,0.0478,0.047,0.0391,0.0281,0.0146,-0.001,-0.009,-0.0209,-0.0248,-0.0189,-0.0206,-0.0253,-0.0247,-0.0316,-0.0317,-0.0317,-0.0317,-0.0318,0,0.0305,0.0331,0.0385,0.0415,0.0434,0.0479,0.0508,0.0519,0.0539,0.0519,0.0523,0.0428,0.0358,0.015,0.0002,-0.0192,-0.0219,-0.028,-0.0277,-0.025,-0.0264,-0.0258,-0.0251,-0.0318,-0.0318,-0.0318,-0.0318,0,0.0334,0.0353,0.0387,0.045,0.0494,0.0547,0.0588,0.0612,0.0616,0.0609,0.057,0.0459,0.0333,0.0163,0.0011,-0.0129,-0.0241,-0.0284,-0.0284,-0.0282,-0.0253,-0.0265,-0.0259,-0.032,-0.0319,-0.0319,-0.0319,0,0.0352,0.038,0.0424,0.0481,0.0538,0.059,0.0615,0.0637,0.0656,0.0633,0.0619,0.0481,0.04,0.0195,0.0056,-0.0083,-0.012,-0.0164,-0.0171,-0.0171,-0.0111,-0.0052,-0.0077,0,0,0,0,0,0.0369,0.0399,0.0451,0.051,0.0567,0.0601,0.0656,0.0673,0.0682,0.0664,0.0645,0.053,0.0322,0.0232,0.0096,0.0037,-0.0152,-0.0128,-0.0208,-0.0326,-0.0325,-0.0279,0,0,0,0,0,0,0.0377,0.0426,0.0449,0.0521,0.0564,0.0628,0.0664,0.0673,0.0665,0.0655,0.055,0.0496,0.0296,0.04,0.0093,0.005,-0.0019,-0.0226,-0.0229,-0.0327,-0.0326,-0.0325,-0.0277,0,0,0,0,0]}]]